Terminal Aerodrome Forecast
Issued by NWS

Home | Current Version | Previous Version | Text Only | Print | Product List | Glossary On
Versions: 1 2 3 4 5 6 7 8 9 10 11 12
000
FTUS46 KSTO 182300
TAFRDD
TAF
KRDD 182321Z 1900/1924 18011KT P6SM VCSH FEW025 BKN050
     FM190300 35005KT P6SM FEW250
     FM191500 01010G16KT P6SM SKC=

USA.gov is the U.S. government's official web portal to all federal, state and local government web resources and services.